Tracking 19800 objects as of 24-Jul-2019
HD Live streaming from Space Station
objects crossing your sky now

COSMOS 1249 COOLANT

Track COSMOS 1249 COOLANT now!
10-day predictions


NORAD ID: 29020
Int'l Code: 1981-021V
Perigee: 904.8 km
Apogee: 954.4 km
Inclination: 65.0 °
Period: 103.5 minutes
Semi major axis: 7300 km
RCS: 0.003 m2 (small)
Launch date: March 5, 1981
Source: Commonwealth of Independent States (former USSR) (CIS)
Launch site: TYURATAM MISSILE AND SPACE COMPLEX (TTMTR)

Note: This is SATELLITE DEBRIS
aabbcc
Your satellite tracking list
Your tracking list is empty




NASA's NSSDC Master Catalog

Two Line Element Set (TLE):
1 29020U 81021V   15093.74908743 +.00005621 +00000-0 +44621-2 0  9998
2 29020 064.9572 227.1611 0033958 154.6236 272.7687 13.91755118516623
Source of the keplerian elements: AFSPC